Regional Weather Roundup
Issued by NWS

Home | Current Version | Previous Version | Graphics & Text | Print | Product List | Glossary On
Versions: 1 2 3 4 5 6 7 8 9 10 11 12 13 14 15 16 17 18 19 20 21 22 23 24 25 26 27 28 29 30 31 32 33 34 35 36 37 38 39 40 41 42 43 44 45 46 47 48 49 50
000
ASUS43 KOAX 190710
RWRNE

WEATHER ROUNDUP FOR NEBRASKA
NATIONAL WEATHER SERVICE OMAHA NE
100 AM CST MON FEB 19 2018

NOTES: SATELLITE DATA IS BEING USED TO AUGMENT CLOUD COVER ABOVE
       12000 FEET.
       "FAIR" INDICATES FEW OR NO CLOUDS BELOW 12,000 FEET WITH NO
       SIGNIFICANT WEATHER AND/OR OBSTRUCTIONS TO VISIBILITY.


NEZ001>004-019>022-054>056-190800-
NEBRASKA PANHANDLE

CITY           SKY/WX    TMP DP  RH WIND       PRES   REMARKS
SCOTTSBLUFF    FLURRIES  10   4  76 N15       29.82R WCI  -7
ALLIANCE       LGT SNOW   8   4  83 N20       29.79R FOG     WCI -11
CHADRON        LGT SNOW   7   2  80 NE16      29.90S WCI -11
GORDON         CLOUDY     8   2  79 N20G25    29.84F WCI -12
KIMBALL        FLURRIES  12   7  83 N18       29.72R WCI  -6
SIDNEY         FLURRIES  11   6  81 N18       29.74R WCI  -7
$$

NEZ057>060-069>072-079>082-190800-
SOUTHWEST NEBRASKA

CITY           SKY/WX    TMP DP  RH WIND       PRES   REMARKS
NORTH PLATTE   CLOUDY    19  13  77 N18G25    29.74R WCI   4
IMPERIAL       CLOUDY    18  14  84 N26G33    29.74R WCI  -1
LEXINGTON      CLOUDY    24  21  88 N25G31    29.70R FOG     WCI   8
MCCOOK         CLOUDY    22  20  92 N25G33    29.70R FOG     WCI   5
OGALLALA       FLURRIES  18  11  76 N20G26    29.78R WCI   1
$$

NEZ005>010-023>029-035>040-094-190800-
NORTH CENTRAL NEBRASKA

CITY           SKY/WX    TMP DP  RH WIND       PRES   REMARKS
VALENTINE      LGT SNOW  12   6  77 N22G28    29.88R WCI  -7
AINSWORTH      LGT SNOW  13  10  88 N26G33    29.83S WCI  -7
BROKEN BOW     FLURRIES  19  15  84 N26G38    29.71R WCI   1
O`NEILL        FLURRIES  17  14  89 N23       29.81R WCI  -1
ORD            FRZ RAIN  20  17  88 N22G33    29.73R FOG     WCI   3
THEDFORD       CLOUDY    14  10  81 N25G32    29.79R WCI  -5
$$

NEZ041-046>049-061>064-073>077-083>087-190800-
SOUTH CENTRAL NEBRASKA

CITY           SKY/WX    TMP DP  RH WIND       PRES   REMARKS
GRAND ISLAND   CLOUDY    26  23  88 N25       29.68R WCI  11
AURORA         CLOUDY    27  24  89 N26       29.65R WCI  11
HASTINGS       CLOUDY    27  23  85 N21G37    29.65R WCI  13
HEBRON         CLOUDY    34  29  82 NE10G18   29.60R WCI  26
HOLDREGE       CLOUDY    26  24  94 N25G33    29.66R WCI  10
KEARNEY        CLOUDY    24  21  88 N29       29.67R WCI   7
YORK           MOCLDY    28  28 100 N23G32    29.64S WCI  14
$$

NEZ011>018-030>034-042>045-190800-
NORTHEAST NEBRASKA

CITY           SKY/WX    TMP DP  RH WIND       PRES   REMARKS
NORFOLK        CLOUDY    26  22  84 N17G28    29.70R WCI  13
ALBION         CLOUDY    23  21  90 N17G29    29.70R FOG     WCI  10
BLAIR          MIX PCPN  33  31  93 N18       29.63F WCI  22
COLUMBUS       MIX PCPN  28  26  92 N18       29.68S FOG     WCI  15
FREMONT        MIX PCPN  32  29  89 N8        29.67S WCI  25
TEKAMAH        CLOUDY    33  29  85 N20       29.66F WCI  21
WAYNE          CLOUDY    26  24  94 N21G29    29.70F WCI  12
$$

NEZ050>053-065>068-078-088>093-190800-
SOUTHEAST NEBRASKA

CITY           SKY/WX    TMP DP  RH WIND       PRES   REMARKS
LINCOLN        LGT SNOW  32  29  88 N15       29.65S FOG     WCI  22
OMAHA EPPLEY   DRIZZLE   33  31  92 N15       29.64F FOG     WCI  23
BEATRICE       CLOUDY    47  43  87 NE8       29.58F
FALLS CITY     CLOUDY    53  47  79 S13       29.60S
NEBRASKA CITY  CLOUDY    49  45  87 SE5       29.60F
PLATTSMOUTH    CLOUDY    43  40  89 N8        29.61F
$$

NEZ044-045-051>053-067-190800-
OMAHA AREA

CITY           SKY/WX    TMP DP  RH WIND       PRES   REMARKS
OMAHA EPPLEY   DRIZZLE   33  31  92 N15       29.64F FOG     WCI  23
BLAIR          MIX PCPN  33  31  93 N18       29.63F WCI  22
FREMONT        MIX PCPN  32  29  89 N8        29.67S WCI  25
MILLARD        DRIZZLE   35  33  90 N5        29.64F WCI  31
OFFUTT AFB     LGT RAIN  34  33  93 N7        29.62F WCI  28
PLATTSMOUTH    CLOUDY    43  40  89 N8        29.61F
WAHOO          MIX PCPN  32  30  92 N16       29.65F WCI  21
$$




USA.gov is the U.S. government's official web portal to all federal, state and local government web resources and services.